BLUEWALKER 1 (44105 NORAD) Tracking and Keplerian Element Data

This shows tracking and keplerian element data for the satellite.

Feedback or suggestion? Click here.




ElementValue
Catalog44105
NameBLUEWALKER 1
Epoch Orbit314
Epoch Day111.7372476
Epoch Year2019
RAAN172.5149
Inclination97.5246
Eccentricity0.0057528
Argument of Perigee277.4983
Mean Anonmoly81.9724
Mean Motion15.30491004
Decay Rate8.87E-06
L11 44105U 19018AD 19111.73724760 .00000887 00000-0 31448-4 0 9999
L22 44105 97.5246 172.5149 0057528 277.4983 81.9724 15.30491004 3141

Live tracking and technical data element details for BLUEWALKER 1 (NORAD 44105). BLUEWALKER 1 can be tracked NOW for your location showing map with azimuth and elevation plus other details from your city location.

Track the satellite on the map from your city or location and see movement details for azimuth, elevation, latitude, longitude, range, height, and movement on the map or in text.







IsCatalogInMostPopularTable: catalog: 44105, numindb: 68
Update: records affected: 1



GetName: 44105 BLUEWALKER 1

Hit Count: updated at: Tue, 23 Apr 2019 02:00:11 GMT